Volver al catálogo

STARLINK-31380

ActivoComunicacionesVLEO
NORAD 58979·PAYLOAD·🇺🇸 United States

Lanzado Feb 15, 2024 desde Vandenberg Space Force Base

Loading…

Próximos Pases (próximas 24 horas)

TLE

ActualizadoSource: CelesTrak SupGP

Época: Sep 14, 2026, 22:16 UTC

1 58979C 24031Q   26257.92826389 -.00059857  00000+0 -17685-2 0  2578
2 58979  53.1564 135.5271 0001356  91.5477  32.9334 15.34419606    10

Sigue STARLINK-31380 en tiempo real con AllMySat

Download on the App Store